Notices

What's New in latest Release from April 7th, 2021:

- Updated Glossary, including Speed of Maximum Gust, and Total Hourly Precipitation

- Updated national and regional climate services offices contacts and prices information

- Addition of station inventory lists for 1981-2010, 1971-2000, and 1961-1990 Normals.

If you haven't already, please take our survey and provide feedback about our website: https://eccc.sondage-survey.ca/f/LanguageSelection.aspx?s=442ca660-fcf1-47c0-95a9-59707d6fd709

Hourly Data Report for June 01, 2021

OTTAWA INTL A
ONTARIO
Current Station Operator: NAVCAN

45°19'00.000" N
75°40'00.000" W
114.90 m
6106001
71628
YOW

Download Data

Hourly Data (June 2021)
Hourly Data Report for June 1, 2021
TIME
LST
Temp Definition
°C
Dew Point Definition
°C
Rel Hum Definition
%
Precip. Amount Definition
mm

Wind Dir Definition
10's deg

Wind Spd Definition
km/h
Visibility Definition
km
Stn Press Definition
kPa
Hmdx Definition


Wind Chill Definition


Weather Definition


00:00 10.8 4.6 65   21 12 24.1 100.62     LegendNANA
01:00 11.5 4.3 61   22 13 24.1 100.63     Mainly Clear
02:00 12.1 3.7 56   23 10 24.1 100.66     LegendNANA
03:00 12.8 3.4 53   26 15 24.1 100.69     LegendNANA
04:00 13.8 3.0 48   24 9 24.1 100.73     Mostly Cloudy
05:00 13.3 4.6 55   21 5 24.1 100.73     LegendNANA
06:00 14.0 5.8 58   22 8 24.1 100.74     LegendNANA
07:00 14.6 7.3 61   25 9 24.1 100.80     Cloudy
08:00 17.2 7.7 53   22 12 24.1 100.80     LegendNANA
09:00 19.6 5.6 40   25 23 24.1 100.78     LegendNANA
10:00 21.2 7.5 41   25 22 24.1 100.73     Mainly Clear
11:00 23.0 6.7 35   24 19 24.1 100.65     LegendNANA
12:00 22.5 6.9 36   27 23 24.1 100.61     LegendNANA
13:00 23.4 7.5 36   25 20 24.1 100.57     Mostly Cloudy
14:00 18.1 11.9 67   24 12 24.1 100.60     LegendNANA
15:00 23.6 9.5 40   23 15 24.1 100.53 25   LegendNANA
16:00 23.9 9.5 40   22 15 24.1 100.52 25   Mostly Cloudy
17:00 23.3 9.4 41   19 15 24.1 100.48     LegendNANA
18:00 22.6 8.0 39   22 15 24.1 100.50     LegendNANA
19:00 20.5 10.6 53   18 8 24.1 100.53     Mostly Cloudy
20:00 19.7 9.4 51   19 8 24.1 100.57     LegendNANA
21:00 17.8 9.0 56   19 10 24.1 100.61     LegendNANA
22:00 16.6 9.1 61   20 9 24.1 100.65     Mainly Clear
23:00 15.8 8.8 63   21 8 24.1 100.67     LegendNANA

Notes on Data Quality.

Legend

  • E = Estimated
  • M = Missing
  • NA = Not Available*
  • [empty] = Indicates an unobserved value
Date modified: